Regional Weather Roundup
Issued by NWS

Home | Current Version | Previous Version | Text Only | Print | Product List | Glossary Off
Versions: 1 2 3 4 5 6 7 8 9 10 11 12 13 14 15 16 17 18 19 20 21 22 23 24 25 26 27 28 29 30 31 32 33 34 35 36 37 38 39 40 41 42 43 44 45 46 47 48 49 50

451
ASUS43 KLMK 302002
RWRKY
KENTUCKY REGIONAL WEATHER ROUNDUP
NATIONAL WEATHER SERVICE LOUISVILLE KY
400 PM EDT SAT JUL 30 2016

NOTE "FAIR" INDICATES FEW OR NO CLOUDS BELOW 12,000 FEET
WITH NO SIGNIFICANT WEATHER AND/OR OBSTRUCTIONS TO VISIBILITY.

KYZ001>023-026-027-061>063-070>075-302100-
WESTERN AND SOUTH CENTRAL KENTUCKY

CITY           SKY/WX    TMP DP  RH WIND       PRES   REMARKS
PADUCAH        SUNNY     85  71  63 CALM      29.96F HX  90
HENDERSON      MOSUNNY   88  72  58 W8        29.94F HX  94
OWENSBORO      PTSUNNY   86  73  64 W12       29.96F HX  93
HOPKINSVILLE   MOSUNNY   85  71  62 W6        29.97F HX  90
BOWLING GREEN  MOSUNNY   86  71  60 VRB7      29.98S HX  91
GLASGOW        NOT AVBL
$$

KYZ024-025-028>034-038-045-046-053-302100-
NORTH CENTRAL KENTUCKY

CITY           SKY/WX    TMP DP  RH WIND       PRES   REMARKS
LOUISVILLE/SDF PTSUNNY   79  71  76 NE6       29.96S
LOUISVILLE/LOU LGT RAIN  78  72  81 CALM      29.97S
FORT KNOX      MOSUNNY   82  71  71 NW12      29.95F
$$

KYZ035>037-039>044-047>052-055>060-089>105-302100-
NORTHEAST KENTUCKY

CITY           SKY/WX    TMP DP  RH WIND       PRES   REMARKS
LEXINGTON      SUNNY     86  68  54 NW6       29.97F
COVINGTON      CLOUDY    86  68  54 SW6       29.95F
FRANKFORT      CLOUDY    85  69  58 SW7       29.95F
$$

KYZ054-064>069-076>088-106>120-302100-
SOUTHEAST KENTUCKY

CITY           SKY/WX    TMP DP  RH WIND       PRES   REMARKS
JACKSON        MOSUNNY   86  71  60 VRB5      29.99F HX  91
LONDON         MOSUNNY   85  67  54 SW8       30.00F
SOMERSET       MOSUNNY   82  68  61 SW8       30.01F
MIDDLESBORO    PTSUNNY   86  73  64 CALM      30.00F HX  93
MONTICELLO     PTCLDY   N/A N/A N/A W14       30.02F
$$





USA.gov is the U.S. government's official web portal to all federal, state and local government web resources and services.